Date,TemperatureHighF,TemperatureAvgF,TemperatureLowF,DewpointHighF,DewpointAvgF,DewpointLowF,HumidityHigh,HumidityAvg,HumidityLow,PressureMaxIn,PressureMinIn,WindSpeedMaxMPH,WindSpeedAvgMPH,GustSpeedMaxMPH,PrecipitationSumIn
2013-2-1,19.8,10.0,1.6,16.0,2.8,-4.5,88,72,63,30.46,30.23,8,5,15,0.00
2013-2-2,27.1,19.2,10.4,23.6,14.9,6.1,91,83,72,30.23,30.06,9,3,15,0.00
2013-2-3,26.2,21.6,13.5,19.9,16.3,9.3,93,80,67,30.13,30.01,8,3,14,0.00
2013-2-4,31.1,25.7,16.2,26.1,20.9,12.7,92,82,73,30.05,29.85,10,5,14,0.01
2013-2-5,35.4,27.9,14.3,30.9,23.7,10.2,92,84,78,30.14,29.85,8,3,13,0.00
2013-2-6,44.6,34.4,22.7,33.7,28.3,19.4,88,79,61,30.25,30.09,10,4,15,0.00
2013-2-7,36.3,34.5,32.1,35.3,33.0,29.8,96,94,87,30.11,29.88,10,4,15,0.94
2013-2-8,32.1,27.0,24.0,29.8,24.0,20.4,91,88,86,30.25,30.04,11,9,15,0.00
2013-2-9,35.4,30.9,25.8,30.5,27.1,23.3,90,86,80,30.42,30.08,13,6,0,0.01
2013-2-10,49.5,41.3,34.6,46.5,38.4,30.8,100,90,64,30.09,29.49,15,8,22,0.47
2013-2-11,43.3,34.2,30.4,34.1,26.5,23.6,79,73,69,30.10,29.56,13,9,32,0.00
2013-2-12,33.9,29.1,25.3,25.1,23.7,22.2,93,80,69,30.15,29.94,7,3,12,0.00
2013-2-13,47.2,35.4,25.0,35.3,29.9,23.0,94,81,59,29.94,29.76,6,2,9,0.01
2013-2-14,40.0,39.3,37.3,33.7,33.3,32.6,83,79,77,29.76,29.69,5,3,8,0.00
2013-2-17,35.0,26.6,10.4,23.8,16.6,6.0,83,66,53,30.26,29.98,12,6,0,0.00
2013-2-18,54.5,39.4,25.2,46.4,33.3,-99.9,94,80,65,29.98,29.46,12,7,0,0.35
2013-2-19,24.7,16.8,11.8,20.0,10.6,4.6,83,76,69,30.30,29.70,14,9,26,0.00
2013-2-20,22.2,15.5,8.0,15.3,9.2,2.0,83,76,68,30.45,30.30,7,4,12,0.00
2013-2-21,32.3,24.0,14.6,26.5,19.9,11.0,92,84,78,30.43,29.95,14,6,21,0.00
2013-2-22,34.9,29.6,26.1,33.1,26.3,22.5,95,88,78,29.98,29.82,10,6,13,0.07
2013-2-23,31.4,26.3,22.5,22.7,20.7,18.4,92,79,69,30.02,29.96,6,4,11,0.00
2013-2-24,40.6,28.2,15.4,28.4,22.1,13.0,96,79,56,30.17,30.02,5,1,6,0.00
2013-2-25,43.9,33.6,23.1,33.5,27.9,20.5,92,80,61,30.19,29.93,11,4,13,0.01
2013-2-26,35.7,34.1,32.6,32.4,30.8,28.2,96,88,75,29.93,29.52,17,11,22,0.05
2013-2-27,33.7,32.4,31.1,32.2,30.7,28.8,95,93,91,29.64,29.57,7,6,13,0.00